| time (UTC) | temp F | wind direction | speed MPH | gust MPH | rain 1hr in | rain 24hr in | rain mn in | humidity % | barometer mb |
| 20260509050006 | 55 | 16 | 0.0 | 0.0 | 0.00 | 0.00 | 0.00 | 73 | 1022.2 |
| 20260509043005 | 55 | 16 | 0.0 | 0.0 | 0.00 | 0.00 | 0.00 | 71 | 1022.2 |
| 20260509041505 | 56 | 16 | 0.0 | 0.0 | 0.00 | 0.00 | 0.00 | 70 | 1022.0 |
| 20260509040005 | 56 | 16 | 0.0 | 0.0 | 0.00 | 0.00 | 0.00 | 69 | 1021.9 |
| 20260509034504 | 57 | 16 | 0.0 | 2.0 | 0.00 | 0.00 | 0.00 | 67 | 1021.7 |
| 20260509031505 | 59 | 16 | 0.0 | 2.0 | 0.00 | 0.00 | 0.00 | 64 | 1021.3 |
| 20260509024504 | 59 | 16 | 0.0 | 0.0 | 0.00 | 0.00 | 0.00 | 62 | 1021.0 |
| 20260509021504 | 60 | 16 | 0.0 | 2.0 | 0.00 | 0.00 | 0.00 | 59 | 1020.9 |
| 20260509020005 | 61 | 16 | 0.0 | 2.0 | 0.00 | 0.00 | 0.00 | 58 | 1020.9 |
| 20260509014504 | 61 | 16 | 0.0 | 2.0 | 0.00 | 0.00 | 0.00 | 58 | 1020.9 |
| 20260509011504 | 62 | 21 | 0.0 | 2.0 | 0.00 | 0.00 | 0.00 | 55 | 1021.0 |
| 20260509010004 | 62 | 21 | 0.0 | 2.0 | 0.00 | 0.00 | 0.00 | 55 | 1021.0 |
| 20260509003006 | 61 | 304 | 0.0 | 2.0 | 0.00 | 0.00 | 0.00 | 55 | 1021.0 |
| 20260509001503 | 62 | 304 | 0.0 | 2.0 | 0.00 | 0.00 | 0.00 | 55 | 1021.0 |
| 20260509000005 | 62 | 304 | 0.0 | 2.0 | 0.00 | 0.00 | 0.00 | 53 | 1021.0 |
| 20260508233003 | 61 | 21 | 0.0 | 2.0 | 0.00 | 0.00 | 0.00 | 54 | 1020.8 |
| 20260508231503 | 62 | 211 | 0.0 | 3.0 | 0.00 | 0.00 | 0.00 | 52 | 1020.8 |
| 20260508223004 | 62 | 25 | 0.0 | 3.0 | 0.00 | 0.00 | 0.00 | 53 | 1021.0 |
| 20260508220008 | 60 | 206 | 0.0 | 2.0 | 0.00 | 0.00 | 0.00 | 55 | 1020.9 |
| 20260508214504 | 60 | 185 | 0.0 | 2.0 | 0.00 | 0.00 | 0.00 | 54 | 1021.1 |
| 20260508213005 | 60 | 40 | 0.0 | 2.0 | 0.00 | 0.00 | 0.00 | 54 | 1021.0 |
| 20260508211504 | 59 | 31 | 0.0 | 2.0 | 0.00 | 0.00 | 0.00 | 56 | 1021.1 |
| 20260508210005 | 59 | 7 | 1.0 | 2.0 | 0.00 | 0.00 | 0.00 | 57 | 1021.0 |
| 20260508204502 | 59 | 360 | 1.0 | 3.0 | 0.00 | 0.00 | 0.00 | 56 | 1020.8 |
| 20260508201503 | 58 | 329 | 0.0 | 2.0 | 0.00 | 0.00 | 0.00 | 57 | 1020.7 |
| 20260508200006 | 58 | 239 | 1.0 | 4.0 | 0.00 | 0.00 | 0.00 | 57 | 1020.8 |
| 20260508194504 | 58 | 21 | 1.0 | 4.0 | 0.00 | 0.00 | 0.00 | 59 | 1020.7 |
| 20260508193005 | 57 | 200 | 0.0 | 2.0 | 0.00 | 0.00 | 0.00 | 62 | 1020.7 |
| 20260508191504 | 56 | 332 | 0.0 | 3.0 | 0.00 | 0.00 | 0.00 | 61 | 1020.7 |
| 20260508190004 | 56 | 197 | 0.0 | 3.0 | 0.00 | 0.00 | 0.00 | 61 | 1020.7 |
| 20260508184504 | 55 | 21 | 0.0 | 3.0 | 0.00 | 0.00 | 0.00 | 64 | 1020.7 |
| 20260508183003 | 54 | 32 | 0.0 | 2.0 | 0.00 | 0.00 | 0.00 | 66 | 1020.8 |
| 20260508181504 | 54 | 58 | 0.0 | 2.0 | 0.00 | 0.00 | 0.00 | 68 | 1020.5 |
| 20260508180005 | 53 | 16 | 0.0 | 2.0 | 0.00 | 0.00 | 0.00 | 70 | 1020.4 |
| 20260508174504 | 53 | 16 | 0.0 | 2.0 | 0.00 | 0.00 | 0.00 | 70 | 1020.2 |
| 20260508173004 | 53 | 6 | 0.0 | 2.0 | 0.00 | 0.00 | 0.00 | 71 | 1020.2 |
| 20260508171503 | 53 | 21 | 1.0 | 4.0 | 0.00 | 0.00 | 0.00 | 71 | 1019.8 |
| 20260508170005 | 53 | 16 | 0.0 | 2.0 | 0.00 | 0.00 | 0.00 | 73 | 1019.6 |
| 20260508163003 | 51 | 206 | 0.0 | 2.0 | 0.00 | 0.00 | 0.00 | 74 | 1019.2 |
| 20260508161503 | 51 | 206 | 0.0 | 2.0 | 0.00 | 0.00 | 0.00 | 74 | 1019.1 |
| 20260508160002 | 51 | 206 | 0.0 | 2.0 | 0.00 | 0.00 | 0.00 | 75 | 1019.2 |
| 20260508154502 | 51 | 206 | 0.0 | 3.0 | 0.00 | 0.00 | 0.00 | 75 | 1019.2 |
| 20260508153001 | 50 | 152 | 0.0 | 2.0 | 0.00 | 0.00 | 0.00 | 78 | 1019.4 |
| 20260508150006 | 49 | 65 | 0.0 | 2.0 | 0.00 | 0.00 | 0.00 | 81 | 1019.6 |
| 20260508144502 | 49 | 65 | 0.0 | 2.0 | 0.00 | 0.00 | 0.00 | 82 | 1019.4 |
| 20260508143005 | 49 | 87 | 0.0 | 2.0 | 0.00 | 0.00 | 0.00 | 82 | 1019.2 |
| 20260508131501 | 49 | 87 | 0.0 | 0.0 | 0.00 | 0.00 | 0.00 | 83 | 1017.9 |
| 20260508130005 | 49 | 87 | 0.0 | 0.0 | 0.00 | 0.00 | 0.00 | 83 | 1017.8 |
| 20260508124501 | 49 | 87 | 0.0 | 0.0 | 0.00 | 0.00 | 0.00 | 83 | 1017.6 |
| 20260508121505 | 49 | 87 | 0.0 | 0.0 | 0.00 | 0.00 | 0.00 | 84 | 1017.4 |
| 20260508113005 | 50 | 87 | 0.0 | 0.0 | 0.00 | 0.00 | 0.00 | 83 | 1016.9 |
| 20260508111503 | 50 | 87 | 0.0 | 0.0 | 0.00 | 0.00 | 0.00 | 83 | 1016.8 |
| 20260508110005 | 50 | 87 | 0.0 | 0.0 | 0.00 | 0.00 | 0.00 | 82 | 1016.6 |
| 20260508103002 | 50 | 87 | 0.0 | 0.0 | 0.00 | 0.00 | 0.00 | 83 | 1016.4 |
| 20260508101501 | 50 | 87 | 0.0 | 0.0 | 0.00 | 0.00 | 0.00 | 83 | 1016.3 |
| 20260508100003 | 50 | 87 | 0.0 | 0.0 | 0.00 | 0.00 | 0.00 | 83 | 1016.4 |
| 20260508094501 | 50 | 87 | 0.0 | 0.0 | 0.00 | 0.00 | 0.00 | 84 | 1016.3 |
| 20260508093002 | 50 | 87 | 0.0 | 0.0 | 0.00 | 0.00 | 0.00 | 83 | 1016.2 |
| 20260508091501 | 50 | 87 | 0.0 | 0.0 | 0.00 | 0.00 | 0.00 | 83 | 1016.2 |
| 20260508090009 | 50 | 87 | 0.0 | 0.0 | 0.00 | 0.00 | 0.00 | 82 | 1016.2 |
| 20260508084502 | 50 | 87 | 0.0 | 0.0 | 0.00 | 0.00 | 0.00 | 82 | 1016.2 |
| 20260508081502 | 51 | 87 | 0.0 | 0.0 | 0.00 | 0.00 | 0.00 | 81 | 1016.0 |
| 20260508080006 | 51 | 87 | 0.0 | 0.0 | 0.00 | 0.00 | 0.00 | 80 | 1016.1 |
| 20260508074505 | 52 | 87 | 0.0 | 0.0 | 0.00 | 0.00 | 0.00 | 79 | 1016.0 |
| 20260508073004 | 52 | 87 | 0.0 | 0.0 | 0.00 | 0.00 | 0.00 | 79 | 1016.0 |
| 20260508071504 | 52 | 87 | 0.0 | 0.0 | 0.00 | 0.00 | 0.00 | 79 | 1016.1 |
| 20260508070008 | 52 | 87 | 0.0 | 0.0 | 0.00 | 0.00 | 0.00 | 78 | 1016.2 |
| 20260508064503 | 52 | 87 | 0.0 | 0.0 | 0.00 | 0.00 | 0.00 | 78 | 1016.1 |
| 20260508063004 | 53 | 87 | 0.0 | 0.0 | 0.00 | 0.00 | 0.00 | 77 | 1016.0 |
| 20260508060004 | 53 | 87 | 0.0 | 0.0 | 0.00 | 0.00 | 0.00 | 76 | 1016.1 |
| 20260508054503 | 54 | 87 | 0.0 | 0.0 | 0.00 | 0.00 | 0.00 | 75 | 1016.2 |